Location: George Washington National Forest Helicopter Landing Site
(38.6463°N, 79.0851°W)
Time: 21:34:50
(UTC-04:00)

Courier 1B - Visible Passes

Search period start: 20 August 2019 00:00
Search period end: 30 August 2019 00:00
Orbit: 962 x 1209 km, 28.3° (Epoch: 20 August)

Date Brightness Start Highest point End Pass type
(mag) Time Alt. Az. Time Alt. Az. Time Alt. Az.
20 Aug 8.5 20:26:29 10° SW 20:32:06 31° S 20:37:40 10° ESE visible
20 Aug 8.4 22:19:49 10° WSW 22:25:00 31° SSW 22:25:00 31° SSW visible
21 Aug 8.3 21:26:09 10° WSW 21:31:52 33° S 21:34:28 24° SE visible
21 Aug 9.5 23:20:13 10° WSW 23:21:21 14° WSW 23:21:21 14° WSW visible
22 Aug 8.4 20:32:29 10° WSW 20:38:18 33° S 20:43:56 10° ESE visible
22 Aug 8.7 22:26:19 10° WSW 22:30:48 26° SSW 22:30:48 26° SSW visible
23 Aug 8.5 21:32:30 10° WSW 21:38:03 30° S 21:40:16 24° SSE visible
24 Aug 8.5 20:38:43 10° WSW 20:44:30 32° S 20:49:43 12° SE visible
24 Aug 9.1 22:33:10 10° WSW 22:36:36 19° SSW 22:36:36 19° SSW visible
25 Aug 8.8 21:39:06 10° WSW 21:44:10 24° SSW 21:46:04 21° S visible
26 Aug 8.8 20:45:07 10° WSW 20:50:39 28° SSW 20:55:33 12° SE visible
26 Aug 9.6 22:40:57 10° SW 22:42:27 12° SW 22:42:27 12° SW visible
27 Aug 9.2 21:46:11 10° WSW 21:50:13 17° SSW 21:51:57 15° S visible
28 Aug 9.2 20:51:52 10° WSW 20:56:43 21° SSW 21:01:27 10° SSE visible
29 Aug 9.7 21:55:31 10° SW 21:56:11 10° SSW 21:56:50 10° SSW visible
